User: anonymous   Login
Location: Unspecified
(0.0000°N, 0.0000°E)
Time: 16:25:25
(UTC+00:00)
Language:

Early Bird - Orbit

View from above orbital plane
View from above orbital plane
View from above satellite
View from above satellite

Ground track
Ground track

The orbit data is extracted from the following two-line orbital elements,

1  1317U 65028A   19015.31547422 -.00000276  00000-0  00000+0 0  9992
2  1317   0.8703  58.0293 0002038 160.2099 312.7871  1.00317209100013
Epoch (UTC): 15 January 2019 07:34:16
Eccentricity: 0.0002038
inclination: 0.8703°
perigee height: 35765 km
apogee height: 35782 km
right ascension of ascending node: 58.0293°
argument of perigee: 160.2099°
revolutions per day: 1.00317209
mean anomaly at epoch: 312.7871°
orbit number at epoch: 10001

The dashed part of the orbit path shows where the satellite is in the earth's shadow,  

DLR